Aeroporto :
LOGIN :

Iscrizione | Disclaimer

   EN    FR    IT 

 










Sommario :    VFR   VFR Marginale   IFR   IFR Intensivo   IFR Molto Intensivo
Visibilità : 
Base nubi : 
>= 8 km
>= 3000ft
5 / 8 km
1000 / 3000 ft
1500m / 5 km
500 / 1000 ft
800 / 1500m
200 / 500 ft
< 800m
< 200 ft
Simboli :   Temporali  Nebbia  Neve Forte  Precipitazioni Forti  Vento > 20 kt
SIGMETs :   Varie  Temporali  Ghiacco  Turbolenza  Onda orograficha  Ceneri Vulcaniche






- Altitudine del aeroporto : 1079 ft


ETIK - Illesheim Air Base

ULTIMO METAR :
  • 261355Z AUTO 17006KT 9999 SCT065 24/11 A3003 RMK AO2 SLP170 T02390105 $

METARs OBSOLETI :
  • 261255Z AUTO 15004KT 9999 SCT060 24/11 A3004 RMK AO2 SLP173 T02350112 $
  • 261155Z AUTO 00000KT 9999 FEW055 SCT075 22/10 A3006 RMK AO2 SLP180 T02170102 10228 20136 56004
  • 261055Z AUTO 15003KT 9999 FEW050 22/10 A3007 RMK AO2 SLP184 T02220100 $
  • 260955Z AUTO 19003KT 9999 BKN045 BKN060 20/11 A3007 RMK AO2 SLP184 T02040113

Previsioni scadute.



MetMap, La meteo Aeronautica in un colpo d'occhio ! - Copyright ORBIFLY Dicembre 2007 - Disclaimer

ORBIFLY MET'MAP TEAM :

Programmazione e sviluppo : Alexandra Zaïnal
Concezione : Baudouin d'Aumeries
Supporto tecnico e logistico : Manuel Goepfert
Aiuto : Marc-Olivier Méhu
Aiuto per la traduzione : Arnaldo La Scala




FONTI E CREDITI :

   NOAA